This is the latest recevied weather packets stored in our database for station/object N4WFF. If no packets are shown the sender has not sent any weather packets the latest 10 day(s).
| Time | Temp. | Humidity | Pressure | Rain* | Wind** | Luminosity | Snow |
|---|---|---|---|---|---|---|---|
| 1777908056 | 22.22° C | 46% | 1018.2 hPa | 0 mm | - | 777 W/m² | - |
| 1777907755 | 22.22° C | 48% | 1018.3 hPa | 0 mm | - | 760 W/m² | - |
| 1777907456 | 21.67° C | 49% | 1018.4 hPa | 0 mm | - | 747 W/m² | - |
| 1777907157 | 21.67° C | 50% | 1018.4 hPa | 0 mm | - | 732 W/m² | - |
| 1777906859 | 21.67° C | 49% | 1018.4 hPa | 0 mm | - | 718 W/m² | - |
| 1777906556 | 21.67° C | 51% | 1018.5 hPa | 0 mm | - | 701 W/m² | - |
| 1777906256 | 21.11° C | 52% | 1018.6 hPa | 0 mm | - | 685 W/m² | - |
| 1777905956 | 21.11° C | 50% | 1018.6 hPa | 0 mm | - | 670 W/m² | - |
| 1777905656 | 20.56° C | 55% | 1018.6 hPa | 0 mm | - | 654 W/m² | - |
| 1777905356 | 20.56° C | 55% | 1018.6 hPa | 0 mm | - | 638 W/m² | - |
| 1777905056 | 20.56° C | 61% | 1018.6 hPa | 0 mm | - | 612 W/m² | - |
| 1777904756 | 20° C | 63% | 1018.6 hPa | 0 mm | - | 598 W/m² | - |
| 1777904456 | 19.44° C | 62% | 1018.6 hPa | 0 mm | - | 591 W/m² | - |
| 1777904156 | 19.44° C | 63% | 1018.7 hPa | 0 mm | - | 570 W/m² | - |
| 1777903856 | 19.44° C | 68% | 1018.7 hPa | 0 mm | - | 553 W/m² | - |
| 1777903303 | 19.44° C | 66% | 1018.7 hPa | 0 mm | - | 522 W/m² | - |
| 1777902956 | 18.89° C | 69% | 1018.7 hPa | 0 mm | - | 503 W/m² | - |
| 1777902655 | 17.78° C | 70% | 1018.6 hPa | 0 mm | - | 482 W/m² | - |
| 1777902356 | 17.22° C | 71% | 1018.7 hPa | 0 mm | - | 454 W/m² | - |
| 1777902057 | 16.67° C | 77% | 1018.7 hPa | 0 mm | - | 450 W/m² | - |
| 1777901757 | 15.56° C | 82% | 1018.7 hPa | 0 mm | - | 369 W/m² | - |
| 1777901455 | 15° C | 85% | 1018.7 hPa | 0 mm | - | 414 W/m² | - |
| 1777901156 | 14.44° C | 88% | 1018.7 hPa | 0 mm | - | 392 W/m² | - |
| 1777900855 | 13.89° C | 90% | 1018.6 hPa | 0 mm | - | 377 W/m² | - |
| 1777900556 | 13.33° C | 92% | 1018.6 hPa | 0 mm | - | 341 W/m² | - |
* Rain latest hour (hover to see other rain measurements)
** Current wind speed in m/s (hover to see current wind gust speed)